Regional Weather Roundup
Issued by NWS

Home | Current Version | Previous Version | Text Only | Print | Product List | Glossary On
Versions: 1 2 3 4 5 6 7 8 9 10 11 12 13 14 15 16 17 18 19 20 21 22 23 24 25 26 27 28 29 30 31 32 33 34 35 36 37 38 39 40 41 42 43 44 45 46 47 48 49 50
000
ASUS43 KMKX 251820
RWRWI

WISCONSIN REGIONAL WEATHER ROUNDUP
NATIONAL WEATHER SERVICE MILWAUKEE/SULLIVAN WI
1200 PM CST SAT FEB 25 2017

NOTE: "FAIR" INDICATES FEW OR NO CLOUDS BELOW 12,000 FEET WITH NO
SIGNIFICANT WEATHER AND/OR OBSTRUCTIONS TO VISIBILITY.

WIZ001-002-006>008-014>016-023>028-251900-
NORTHWEST WISCONSIN

CITY           SKY/WX    TMP DP  RH WIND       PRES   REMARKS
SUPERIOR ARPT  SUNNY     23   5  46 NW14G20   29.87S WCI  11
6HR MIN TEMP:   8; 6HR MAX TEMP:  23;

ASHLAND        SUNNY     22   8  55 NW12G24   29.81S WCI  10
6HR MIN TEMP:  14; 6HR MAX TEMP:  22; 6HR PCP: TRACE;

HAYWARD        SUNNY     21   2  43 NW9G18    29.82S WCI  11
6HR MIN TEMP:  10; 6HR MAX TEMP:  22;

SIREN          SUNNY     25   3  38 NW10G20   29.88S WCI  15
6HR MIN TEMP:  11; 6HR MAX TEMP:  25;

CUMBERLAND     SUNNY     23   5  46 NW13      29.85S WCI  11
RICE LAKE      SUNNY     22   5  46 W9G16     29.88R WCI  12
6HR MIN TEMP:  11; 6HR MAX TEMP:  22;

CHETEK         SUNNY     22   6  50 W5        29.86S WCI  16
6HR MIN TEMP:  10; 6HR MAX TEMP:  22;

LADYSMITH      SUNNY     19   6  55 NW10      29.83S WCI   8
6HR MIN TEMP:  12; 6HR MAX TEMP:  19;

EAU CLAIRE     SUNNY     20   4  50 W14G21    29.88R WCI   7
6HR MIN TEMP:  10; 6HR MAX TEMP:  20; 6HR PCP: TRACE;

MENOMONIE      SUNNY     22   5  46 W13G21    29.91R WCI  10
6HR MIN TEMP:  12; 6HR MAX TEMP:  22;

NEW RICHMOND   SUNNY     26   7  43 NW16      29.90S WCI  14
6HR MIN TEMP:  13; 6HR MAX TEMP:  27;

OSCEOLA        SUNNY     27   7  42 NW15G21   29.94S WCI  15
6HR MIN TEMP:  14; 6HR MAX TEMP:  27;

$$

WIZ003>005-009-010-017-018-251900-
NORTH CENTRAL WISCONSIN

CITY           SKY/WX    TMP DP  RH WIND       PRES   REMARKS
MANITOWISH WTR LGT SNOW  14   9  81 W13G21    29.71R WCI   0
6HR MIN TEMP:  11; 6HR MAX TEMP:  14;

ARBOR VITAE    LGT SNOW  17  10  75 NW13G23     N/A  WCI   3
6HR MIN TEMP:  14; 6HR MAX TEMP:  17;

WOODRUFF       LGT SNOW  17  10  75 NW13G23     N/A  WCI   3
6HR MIN TEMP:  14; 6HR MAX TEMP:  17;

RHINELANDER    LGT SNOW  17   9  70 NW14G26   29.70R WCI   3
6HR MIN TEMP:  13; 6HR MAX TEMP:  17; 6HR PCP: TRACE;

EAGLE RIVER    LGT SNOW  17  10  75 W12       29.67R VSB 1   WCI   4
6HR MIN TEMP:  14; 6HR MAX TEMP:  18;

LAND O LAKES   LGT SNOW  18  13  81 NW10G18   29.68R VSB 1   WCI   6
6HR MIN TEMP:  14; 6HR MAX TEMP:  18;

PHILLIPS       CLOUDY    14   6  70 W8G17     29.76R WCI   3
6HR MIN TEMP:  10; 6HR MAX TEMP:  14;

TOMAHAWK       LGT SNOW  16   8  71 W10G20    29.75R WCI   4
6HR MIN TEMP:  11; 6HR MAX TEMP:  16;

MEDFORD        CLOUDY    14   5  67 W13       29.77S WCI   0
6HR MIN TEMP:  11; 6HR MAX TEMP:  14;

MERRILL        NOT AVBL
$$

WIZ029-030-035-036-043>047-251900-
CENTRAL WISCONSIN

CITY           SKY/WX    TMP DP  RH WIND       PRES   REMARKS
WAUSAU         CLOUDY    16   8  71 W16       29.76R WCI   1
6HR MIN TEMP:  13; 6HR MAX TEMP:  17; 6HR PCP: TRACE;

MOSINEE        CLOUDY    16  10  79 W20       29.78R WCI  -1
MARSHFIELD     MOSUNNY   16   6  65 NW15      29.80R WCI   1
6HR MIN TEMP:  12; 6HR MAX TEMP:  16; 6HR PCP: TRACE;

STEVENS POINT  CLOUDY    15   7  68 W13G23    29.80R WCI   2
6HR MIN TEMP:  13; 6HR MAX TEMP:  16;

WAUPACA        CLOUDY    23  11  59 W14G20    29.80R WCI  10
6HR MIN TEMP:  19; 6HR MAX TEMP:  23;

WAUTOMA        FLURRIES  21  11  65 MISG        N/A
6HR MIN TEMP:  15; 6HR MAX TEMP:  22; 6HR PCP: TRACE;

WISC RAPIDS    MOSUNNY   18   7  62 NW15G24   29.83R WCI   4
6HR MIN TEMP:  14; 6HR MAX TEMP:  18; 6HR PCP: TRACE;

CAMP DOUGLAS   PTSUNNY   18   9  68 W16       29.86R WCI   3
                                      6HR PCP: TRACE;

$$

WIZ011>013-019>022-031-037>040-048>050-251900-
NORTHEAST WISCONSIN

CITY           SKY/WX    TMP DP  RH WIND       PRES   REMARKS
ANTIGO         CLOUDY    17   9  71 NW16G24   29.71R WCI   1
6HR MIN TEMP:  13; 6HR MAX TEMP:  17;

SHAWANO        CLOUDY    24  12  61 CALM      29.75R
6HR MIN TEMP:  19; 6HR MAX TEMP:  24;

OCONTO         CLOUDY    22  12  65 W15G25    29.71R WCI   9
6HR MIN TEMP:  18; 6HR MAX TEMP:  23;

STURGEON BAY   FLURRIES  24  17  74 W14G21    29.69R WCI  12
6HR MIN TEMP:  19; 6HR MAX TEMP:  24; 6HR PCP: TRACE;

GREEN BAY      CLOUDY    22  14  71 W22G32    29.75R HAZE    WCI   6
6HR MIN TEMP:  19; 6HR MAX TEMP:  23; 6HR PCP:  0.01;

MANITOWOC      CLOUDY    23  13  65 W15G28    29.74R WCI  10
6HR MIN TEMP:  19; 6HR MAX TEMP:  23; 6HR PCP: TRACE;

APPLETON       CLOUDY    19  10  68 NW16      29.75R WCI   5
CLINTONVILLE   CLOUDY    21  10  63 NW17G24   29.77R WCI   7
OSHKOSH        CLOUDY    20  11  68 W17       29.78R WCI   5
6HR MIN TEMP:  17; 6HR MAX TEMP:  20; 6HR PCP: TRACE;

$$

WIZ032>034-041-042-053>061-251900-
SOUTHWEST WISCONSIN

CITY           SKY/WX    TMP DP  RH WIND       PRES   REMARKS
LA CROSSE      SUNNY     23   8  52 NW17      29.92R WCI   9
6HR MIN TEMP:  16; 6HR MAX TEMP:  23;

SPARTA         SUNNY     21  10  61 W15       29.90R WCI   8
6HR MIN TEMP:  14; 6HR MAX TEMP:  21;

VIROQUA        SUNNY     20   9  62 NW14      29.87R WCI   7
6HR MIN TEMP:  13; 6HR MAX TEMP:  21;

BOSCOBEL       SUNNY     24   9  52 NW9       29.93R WCI  14
6HR MIN TEMP:  18; 6HR MAX TEMP:  24;

PRAIRIE DU CHI SUNNY     22   8  55 W20       29.95S WCI   7
6HR MIN TEMP:  17; 6HR MAX TEMP:  22;

PLATTEVILLE    MOSUNNY   22  15  77 W10       29.90R WCI  11
6HR MIN TEMP:  17; 6HR MAX TEMP:  22;

$$

WIZ056-057-062-063-064-067-068-251900-
SOUTH CENTRAL WISCONSIN

CITY           SKY/WX    TMP DP  RH WIND       PRES   REMARKS
REEDSBURG      CLOUDY    19  10  66 W10G21    29.87R WCI   8
6HR MIN TEMP:  15; 6HR MAX TEMP:  19;

BARABOO/DELLS  CLOUDY    18  10  69 NW9       29.86R WCI   7
6HR MIN TEMP:  15; 6HR MAX TEMP:  18;

LONE ROCK      MOSUNNY   21  10  62 NW13G22   29.90R WCI   9
6HR MIN TEMP:  17; 6HR MAX TEMP:  22; 6HR PCP: TRACE;

MINERAL POINT  CLOUDY    23  18  80 W5        29.86S WCI  17
MADISON        CLOUDY    18   9  68 NW13G20   29.86R WCI   5
6HR MIN TEMP:  16; 6HR MAX TEMP:  18; 6HR PCP:  0.01;

MIDDLETON      CLOUDY    21  13  72 NW8       29.86R WCI  11
6HR MIN TEMP:  17; 6HR MAX TEMP:  21;

WATERTOWN      CLOUDY    17  11  75 W16       29.84R WCI   2
6HR MIN TEMP:  17; 6HR MAX TEMP:  19;

MONROE         PTSUNNY   23  14  68 NW18G25   29.85R WCI   9
JANESVILLE     FLURRIES  23  16  74 NW14G20   29.85R WCI  11
$$

WIZ051-052-058>065-066-070>072-251900-
SOUTHEAST WISCONSIN

CITY           SKY/WX    TMP DP  RH WIND       PRES   REMARKS
MILWAUKEE      CLOUDY    20   8  60 NW16G33   29.82R WCI   6
6HR MIN TEMP:  20; 6HR MAX TEMP:  23; 6HR PCP: TRACE;

WAUKESHA       LGT SNOW  16   9  73 W18G26    29.83R WCI  -1
MILWAUKEE/TIMM LGT SNOW  18   9  68 NW20G26   29.82R WCI   1
RACINE         FLURRIES  21  11  65 NW15G22   29.84R WCI   8
6HR MIN TEMP:  20; 6HR MAX TEMP:  23; 6HR PCP: TRACE;

KENOSHA        LGT SNOW  21  12  68 NW18G26   29.83R WCI   6
6HR MIN TEMP:  20; 6HR MAX TEMP:  23; 6HR PCP: TRACE;

FOND DU LAC    FLURRIES  20   9  62 NW17G26   29.79S WCI   5
6HR MIN TEMP:  18; 6HR MAX TEMP:  20; 6HR PCP: TRACE;

SHEBOYGAN      MIX PCPN  20  12  71 W16G26    29.76R WCI   6
6HR MIN TEMP:  19; 6HR MAX TEMP:  21; 6HR PCP: TRACE;

WEST BEND      CLOUDY    19  14  79 W8        29.79R WCI   9
JUNEAU         FLURRIES  17  10  76 W3        29.83R
6HR MIN TEMP:  15; 6HR MAX TEMP:  17;

$$

LSZ147-162-251900-
LAKE SUPERIOR

STATION/POSITION TIME  TEMP    WIND        PRES    WAVE
                       AIR SEA DIR/SP/G            HT/PER
                 (UTC) (F)     (DEG/KT/KT) (MB)    (FT/S)
DEVILS ISLAND    1800   20     270/ 15/ 17 1010.0R
PORT WING        1740   20     280/ 11/ 18 1010.8S
SAXON HARBOR     1740   19     300/ 11/ 16 1009.1R
$$

LMZ867-665-643>646-251900-
LAKE MICHIGAN

STATION/POSITION TIME  TEMP    WIND        PRES    WAVE
                       AIR SEA DIR/SP/G            HT/PER
                 (UTC) (F)     (DEG/KT/KT) (MB)    (FT/S)
CHAMBERS ISLAND  1740   26      CALM  /  2 1004.4R
NORTHPORT PIER   1712   21     300/  1/  3 1003.7
SISTER BAY



USA.gov is the U.S. government's official web portal to all federal, state and local government web resources and services.